HISTORICAL SENSOR DATA

Sensor Data Report

DB LIVE
CURRENT TIME--:--:--
DEVICE NETWORK Gateway Status
13 ESP · realtime ~1s · history 60s
Weather WS-MOD-01
OFFLINE
Actuator ACT-MOD-01
OFFLINE
Mainboard L3 MB-L3-01
OFFLINE
Mainboard L5 MB-L5-01
OFFLINE
Remote AC AC-REMOTE-01
OFFLINE
PZEM L3-01 PWR-L3-01
OFFLINE
PZEM L3-02 PWR-L3-02
OFFLINE
PZEM L3-03 PWR-L3-03
OFFLINE
PZEM L3-04 PWR-L3-04
OFFLINE
PZEM L5-01 PWR-L5-01
OFFLINE
PZEM L5-02 PWR-L5-02
OFFLINE
PZEM L5-03 PWR-L5-03
OFFLINE
PZEM L5-04 PWR-L5-04
OFFLINE
REPORT FILTER

Periode & Sensor

DATABASE HISTORY
RESET
QUICK RANGE Hari ini 7 hari 30 hari
PERIODE05 Sep 2026sampai 05 Sep 2026
TOTAL DATA565sensor readings
MINIMUM1.00sesuai filter
AVERAGE284.06sesuai filter
MAXIMUM11,921.20sesuai filter
REPORT RESULT

Data Sensor

05/09/2026 — 05/09/2026 EXPORT CSV
NOTANGGALWAKTUDEVICECHANNELSENSORVALUEUNIT
301 05/09/2026 16:02:00 MB-L5-01Mainboard Lantai 5 L5-AI-06 Analog Input 6 3.05 V
302 05/09/2026 16:02:00 MB-L5-01Mainboard Lantai 5 L5-BGT-02 Black Globe Temperature 2 29.90 °C
303 05/09/2026 16:02:00 MB-L5-01Mainboard Lantai 5 L5-BGT-03 Black Globe Temperature 3 29.90 °C
304 05/09/2026 16:02:00 MB-L5-01Mainboard Lantai 5 L5-HFT-01 Heat Flow Temperature 1 30.40 °C
305 05/09/2026 16:02:00 MB-L5-01Mainboard Lantai 5 L5-HFT-02 Heat Flow Temperature 2 30.40 °C
306 05/09/2026 16:02:00 MB-L5-01Mainboard Lantai 5 L5-BGT-01 Black Globe Temperature 1 29.90 °C
307 05/09/2026 16:02:00 MB-L5-01Mainboard Lantai 5 L5-ST-01 Surface Temperature 1 30.60 °C
308 05/09/2026 16:02:00 MB-L5-01Mainboard Lantai 5 L5-ST-02 Surface Temperature 2 30.60 °C
309 05/09/2026 16:01:00 MB-L5-01Mainboard Lantai 5 L5-LUX-02 Illuminance / LUX 2 2,151.60 lux
310 05/09/2026 16:01:00 MB-L5-01Mainboard Lantai 5 L5-RAD-02 Radiation 2 4.00 W/m²
311 05/09/2026 16:01:00 MB-L5-01Mainboard Lantai 5 L5-HFT-01 Heat Flow Temperature 1 29.90 °C
312 05/09/2026 16:01:00 MB-L5-01Mainboard Lantai 5 L5-HFT-02 Heat Flow Temperature 2 29.80 °C
313 05/09/2026 16:01:00 MB-L5-01Mainboard Lantai 5 L5-BGT-01 Black Globe Temperature 1 29.60 °C
314 05/09/2026 16:01:00 MB-L5-01Mainboard Lantai 5 L5-SHT-02-RH SHT20 2 Humidity 30.20 %RH
315 05/09/2026 16:01:00 MB-L5-01Mainboard Lantai 5 L5-ST-01 Surface Temperature 1 29.90 °C
316 05/09/2026 16:01:00 MB-L5-01Mainboard Lantai 5 L5-ST-02 Surface Temperature 2 29.90 °C
317 05/09/2026 16:01:00 MB-L5-01Mainboard Lantai 5 L5-LUX-04 Illuminance / LUX 4 976.90 lux
318 05/09/2026 16:01:00 MB-L5-01Mainboard Lantai 5 L5-LUX-06 Illuminance / LUX 6 1,991.40 lux
319 05/09/2026 16:01:00 MB-L5-01Mainboard Lantai 5 L5-SHT-01-T SHT20 1 Temperature 33.60 °C
320 05/09/2026 16:01:00 MB-L5-01Mainboard Lantai 5 L5-LUX-01 Illuminance / LUX 1 760.80 lux
321 05/09/2026 16:01:00 MB-L5-01Mainboard Lantai 5 L5-RAD-01 Radiation 1 20.00 W/m²
322 05/09/2026 16:01:00 MB-L5-01Mainboard Lantai 5 L5-SHT-02-T SHT20 2 Temperature 32.40 °C
323 05/09/2026 16:01:00 MB-L5-01Mainboard Lantai 5 L5-LUX-03 Illuminance / LUX 3 1,429.80 lux
324 05/09/2026 16:01:00 MB-L5-01Mainboard Lantai 5 L5-LUX-05 Illuminance / LUX 5 11,921.20 lux
325 05/09/2026 16:01:00 MB-L5-01Mainboard Lantai 5 L5-AI-01 Analog Input 1 3.05 V
326 05/09/2026 16:01:00 MB-L5-01Mainboard Lantai 5 L5-AI-02 Analog Input 2 3.05 V
327 05/09/2026 16:01:00 MB-L5-01Mainboard Lantai 5 L5-AI-03 Analog Input 3 3.05 V
328 05/09/2026 16:01:00 MB-L5-01Mainboard Lantai 5 L5-AI-04 Analog Input 4 3.05 V
329 05/09/2026 16:01:00 MB-L5-01Mainboard Lantai 5 L5-AI-05 Analog Input 5 3.05 V
330 05/09/2026 16:01:00 MB-L5-01Mainboard Lantai 5 L5-AI-06 Analog Input 6 3.05 V
331 05/09/2026 16:01:00 MB-L5-01Mainboard Lantai 5 L5-BGT-02 Black Globe Temperature 2 29.60 °C
332 05/09/2026 16:01:00 MB-L5-01Mainboard Lantai 5 L5-BGT-03 Black Globe Temperature 3 29.60 °C
333 05/09/2026 16:01:00 MB-L5-01Mainboard Lantai 5 L5-SHT-01-RH SHT20 1 Humidity 29.00 %RH
334 05/09/2026 16:00:00 MB-L5-01Mainboard Lantai 5 L5-AI-01 Analog Input 1 3.05 V
335 05/09/2026 16:00:00 MB-L5-01Mainboard Lantai 5 L5-AI-02 Analog Input 2 3.05 V
336 05/09/2026 16:00:00 MB-L5-01Mainboard Lantai 5 L5-AI-03 Analog Input 3 3.05 V
337 05/09/2026 16:00:00 MB-L5-01Mainboard Lantai 5 L5-AI-04 Analog Input 4 3.05 V
338 05/09/2026 16:00:00 MB-L5-01Mainboard Lantai 5 L5-AI-05 Analog Input 5 3.05 V
339 05/09/2026 16:00:00 MB-L5-01Mainboard Lantai 5 L5-AI-06 Analog Input 6 3.05 V
340 05/09/2026 16:00:00 MB-L5-01Mainboard Lantai 5 L5-BGT-02 Black Globe Temperature 2 29.30 °C
341 05/09/2026 16:00:00 MB-L5-01Mainboard Lantai 5 L5-BGT-03 Black Globe Temperature 3 29.40 °C
342 05/09/2026 16:00:00 MB-L5-01Mainboard Lantai 5 L5-HFT-01 Heat Flow Temperature 1 29.30 °C
343 05/09/2026 16:00:00 MB-L5-01Mainboard Lantai 5 L5-HFT-02 Heat Flow Temperature 2 29.30 °C
344 05/09/2026 16:00:00 MB-L5-01Mainboard Lantai 5 L5-BGT-01 Black Globe Temperature 1 29.30 °C
345 05/09/2026 16:00:00 MB-L5-01Mainboard Lantai 5 L5-ST-01 Surface Temperature 1 29.30 °C
346 05/09/2026 16:00:00 MB-L5-01Mainboard Lantai 5 L5-ST-02 Surface Temperature 2 29.40 °C
347 05/09/2026 15:59:00 MB-L5-01Mainboard Lantai 5 L5-LUX-04 Illuminance / LUX 4 1,000.40 lux
348 05/09/2026 15:59:00 MB-L5-01Mainboard Lantai 5 L5-LUX-06 Illuminance / LUX 6 1,913.80 lux
349 05/09/2026 15:59:00 MB-L5-01Mainboard Lantai 5 L5-SHT-01-T SHT20 1 Temperature 33.00 °C
350 05/09/2026 15:59:00 MB-L5-01Mainboard Lantai 5 L5-LUX-01 Illuminance / LUX 1 807.60 lux
351 05/09/2026 15:59:00 MB-L5-01Mainboard Lantai 5 L5-RAD-01 Radiation 1 20.00 W/m²
352 05/09/2026 15:59:00 MB-L5-01Mainboard Lantai 5 L5-SHT-02-T SHT20 2 Temperature 32.20 °C
353 05/09/2026 15:59:00 MB-L5-01Mainboard Lantai 5 L5-AI-01 Analog Input 1 3.05 V
354 05/09/2026 15:59:00 MB-L5-01Mainboard Lantai 5 L5-AI-02 Analog Input 2 3.05 V
355 05/09/2026 15:59:00 MB-L5-01Mainboard Lantai 5 L5-AI-03 Analog Input 3 3.05 V
356 05/09/2026 15:59:00 MB-L5-01Mainboard Lantai 5 L5-AI-04 Analog Input 4 3.05 V
357 05/09/2026 15:59:00 MB-L5-01Mainboard Lantai 5 L5-AI-05 Analog Input 5 3.05 V
358 05/09/2026 15:59:00 MB-L5-01Mainboard Lantai 5 L5-AI-06 Analog Input 6 3.05 V
359 05/09/2026 15:59:00 MB-L5-01Mainboard Lantai 5 L5-LUX-03 Illuminance / LUX 3 1,459.80 lux
360 05/09/2026 15:59:00 MB-L5-01Mainboard Lantai 5 L5-BGT-02 Black Globe Temperature 2 29.70 °C
361 05/09/2026 15:59:00 MB-L5-01Mainboard Lantai 5 L5-BGT-03 Black Globe Temperature 3 29.70 °C
362 05/09/2026 15:59:00 MB-L5-01Mainboard Lantai 5 L5-HFT-01 Heat Flow Temperature 1 29.80 °C
363 05/09/2026 15:59:00 MB-L5-01Mainboard Lantai 5 L5-HFT-02 Heat Flow Temperature 2 29.90 °C
364 05/09/2026 15:59:00 MB-L5-01Mainboard Lantai 5 L5-BGT-01 Black Globe Temperature 1 29.60 °C
365 05/09/2026 15:59:00 MB-L5-01Mainboard Lantai 5 L5-SHT-01-RH SHT20 1 Humidity 30.20 %RH
366 05/09/2026 15:59:00 MB-L5-01Mainboard Lantai 5 L5-ST-01 Surface Temperature 1 29.80 °C
367 05/09/2026 15:59:00 MB-L5-01Mainboard Lantai 5 L5-ST-02 Surface Temperature 2 29.90 °C
368 05/09/2026 15:59:00 MB-L5-01Mainboard Lantai 5 L5-LUX-02 Illuminance / LUX 2 348.50 lux
369 05/09/2026 15:59:00 MB-L5-01Mainboard Lantai 5 L5-RAD-02 Radiation 2 4.00 W/m²
370 05/09/2026 15:59:00 MB-L5-01Mainboard Lantai 5 L5-SHT-02-RH SHT20 2 Humidity 29.70 %RH
371 05/09/2026 12:13:00 MB-L5-01Mainboard Lantai 5 L5-AI-01 Analog Input 1 3.05 V
372 05/09/2026 12:13:00 MB-L5-01Mainboard Lantai 5 L5-AI-02 Analog Input 2 3.05 V
373 05/09/2026 12:13:00 MB-L5-01Mainboard Lantai 5 L5-AI-03 Analog Input 3 3.05 V
374 05/09/2026 12:13:00 MB-L5-01Mainboard Lantai 5 L5-AI-04 Analog Input 4 3.05 V
375 05/09/2026 12:13:00 MB-L5-01Mainboard Lantai 5 L5-AI-05 Analog Input 5 3.05 V
376 05/09/2026 12:13:00 MB-L5-01Mainboard Lantai 5 L5-AI-06 Analog Input 6 3.05 V
377 05/09/2026 12:13:00 MB-L5-01Mainboard Lantai 5 L5-BGT-02 Black Globe Temperature 2 29.00 °C
378 05/09/2026 12:13:00 MB-L5-01Mainboard Lantai 5 L5-BGT-03 Black Globe Temperature 3 29.00 °C
379 05/09/2026 12:13:00 MB-L5-01Mainboard Lantai 5 L5-HFT-01 Heat Flow Temperature 1 29.40 °C
380 05/09/2026 12:13:00 MB-L5-01Mainboard Lantai 5 L5-HFT-02 Heat Flow Temperature 2 29.30 °C
381 05/09/2026 12:13:00 MB-L5-01Mainboard Lantai 5 L5-BGT-01 Black Globe Temperature 1 29.10 °C
382 05/09/2026 12:13:00 MB-L5-01Mainboard Lantai 5 L5-ST-01 Surface Temperature 1 29.40 °C
383 05/09/2026 12:13:00 MB-L5-01Mainboard Lantai 5 L5-ST-02 Surface Temperature 2 29.60 °C
384 05/09/2026 12:12:00 MB-L5-01Mainboard Lantai 5 L5-BGT-02 Black Globe Temperature 2 29.20 °C
385 05/09/2026 12:12:00 MB-L5-01Mainboard Lantai 5 L5-BGT-03 Black Globe Temperature 3 29.10 °C
386 05/09/2026 12:12:00 MB-L5-01Mainboard Lantai 5 L5-HFT-01 Heat Flow Temperature 1 29.80 °C
387 05/09/2026 12:12:00 MB-L5-01Mainboard Lantai 5 L5-HFT-02 Heat Flow Temperature 2 29.50 °C
388 05/09/2026 12:12:00 MB-L5-01Mainboard Lantai 5 L5-BGT-01 Black Globe Temperature 1 29.40 °C
389 05/09/2026 12:12:00 MB-L5-01Mainboard Lantai 5 L5-ST-01 Surface Temperature 1 29.90 °C
390 05/09/2026 12:12:00 MB-L5-01Mainboard Lantai 5 L5-ST-02 Surface Temperature 2 30.00 °C
391 05/09/2026 12:12:00 MB-L5-01Mainboard Lantai 5 L5-AI-01 Analog Input 1 3.05 V
392 05/09/2026 12:12:00 MB-L5-01Mainboard Lantai 5 L5-AI-02 Analog Input 2 3.05 V
393 05/09/2026 12:12:00 MB-L5-01Mainboard Lantai 5 L5-AI-03 Analog Input 3 3.05 V
394 05/09/2026 12:12:00 MB-L5-01Mainboard Lantai 5 L5-AI-04 Analog Input 4 3.05 V
395 05/09/2026 12:12:00 MB-L5-01Mainboard Lantai 5 L5-AI-05 Analog Input 5 3.05 V
396 05/09/2026 12:12:00 MB-L5-01Mainboard Lantai 5 L5-AI-06 Analog Input 6 3.05 V
397 05/09/2026 12:11:00 MB-L5-01Mainboard Lantai 5 L5-HFT-01 Heat Flow Temperature 1 29.50 °C
398 05/09/2026 12:11:00 MB-L5-01Mainboard Lantai 5 L5-HFT-02 Heat Flow Temperature 2 29.30 °C
399 05/09/2026 12:11:00 MB-L5-01Mainboard Lantai 5 L5-BGT-01 Black Globe Temperature 1 29.10 °C
400 05/09/2026 12:11:00 MB-L5-01Mainboard Lantai 5 L5-ST-01 Surface Temperature 1 29.50 °C
Menampilkan maksimal 100 data per halaman